TimeMST,TemperatureF,Dew PointF,Humidity,Sea Level PressureIn,VisibilityMPH,Wind Direction,Wind SpeedMPH,Gust SpeedMPH,PrecipitationIn,Events,Conditions,WindDirDegrees,DateUTC
12:15 AM,57.2,37.4,48,30.08,10.0,East,6.9,-,N/A,,Clear,100,2012-11-18 07:15:00
12:35 AM,57.2,37.4,48,30.08,10.0,East,5.8,-,N/A,,Clear,100,2012-11-18 07:35:00
12:55 AM,57.2,37.4,48,30.08,10.0,ESE,5.8,-,N/A,,Clear,110,2012-11-18 07:55:00
1:15 AM,57.2,37.4,48,30.07,10.0,ESE,5.8,-,N/A,,Clear,120,2012-11-18 08:15:00
1:35 AM,57.2,37.4,48,30.07,10.0,East,4.6,-,N/A,,Clear,100,2012-11-18 08:35:00
1:55 AM,57.2,37.4,48,30.08,10.0,ESE,5.8,-,N/A,,Clear,110,2012-11-18 08:55:00
2:15 AM,57.2,37.4,48,30.07,10.0,East,5.8,-,N/A,,Clear,100,2012-11-18 09:15:00
2:35 AM,57.2,35.6,44,30.07,10.0,East,4.6,-,N/A,,Clear,100,2012-11-18 09:35:00
2:55 AM,57.2,35.6,44,30.07,10.0,ESE,5.8,-,N/A,,Clear,110,2012-11-18 09:55:00
3:15 AM,57.2,35.6,44,30.07,10.0,ESE,5.8,-,N/A,,Clear,120,2012-11-18 10:15:00
3:35 AM,57.2,37.4,48,30.07,10.0,ESE,3.5,-,N/A,,Clear,120,2012-11-18 10:35:00
3:55 AM,57.2,35.6,44,30.06,10.0,East,5.8,-,N/A,,Clear,100,2012-11-18 10:55:00
4:15 AM,57.2,37.4,48,30.06,10.0,ESE,5.8,-,N/A,,Clear,110,2012-11-18 11:15:00
4:35 AM,57.2,37.4,48,30.06,10.0,ESE,6.9,-,N/A,,Clear,110,2012-11-18 11:35:00
4:55 AM,57.2,39.2,51,30.06,10.0,East,5.8,-,N/A,,Clear,80,2012-11-18 11:55:00
5:15 AM,57.2,41.0,55,30.06,10.0,East,5.8,-,N/A,,Clear,90,2012-11-18 12:15:00
5:47 AM,55.4,39.2,54,30.07,20.0,Calm,Calm,-,N/A,,Scattered Clouds,0,2012-11-18 12:47:00
6:47 AM,53.6,39.2,58,30.09,20.0,ESE,5.8,-,N/A,,Scattered Clouds,110,2012-11-18 13:47:00
7:47 AM,53.6,39.2,58,30.10,45.0,East,5.8,-,N/A,,Scattered Clouds,100,2012-11-18 14:47:00
8:48 AM,59.0,41.0,51,30.11,45.0,SE,6.9,-,N/A,,Partly Cloudy,130,2012-11-18 15:48:00
9:47 AM,66.2,37.4,35,30.12,45.0,SE,3.5,-,N/A,,Partly Cloudy,130,2012-11-18 16:47:00
10:47 AM,71.6,37.4,29,30.12,45.0,South,5.8,-,N/A,,Partly Cloudy,170,2012-11-18 17:47:00
11:47 AM,73.4,39.2,29,30.11,35.0,Calm,Calm,-,N/A,,Partly Cloudy,0,2012-11-18 18:47:00
12:47 PM,73.4,39.2,29,30.08,30.0,Calm,Calm,-,N/A,,Partly Cloudy,0,2012-11-18 19:47:00
1:49 PM,75.2,41.0,29,30.06,45.0,NNW,4.6,-,N/A,,Scattered Clouds,330,2012-11-18 20:49:00
2:47 PM,75.2,41.0,29,30.05,45.0,NW,4.6,-,N/A,,Scattered Clouds,310,2012-11-18 21:47:00
3:47 PM,78.8,42.8,28,30.06,45.0,WNW,4.6,-,N/A,,Partly Cloudy,290,2012-11-18 22:47:00
4:47 PM,75.2,41.0,29,30.06,45.0,WSW,3.5,-,N/A,,Partly Cloudy,250,2012-11-18 23:47:00
5:47 PM,73.4,41.0,31,30.07,20.0,NNW,3.5,-,N/A,,Partly Cloudy,330,2012-11-19 00:47:00
6:47 PM,68.0,39.2,35,30.08,20.0,North,4.6,-,N/A,,Clear,350,2012-11-19 01:47:00
7:47 PM,64.4,39.2,40,30.09,20.0,NNE,4.6,-,N/A,,Clear,30,2012-11-19 02:47:00
7:55 PM,64.4,39.2,40,30.09,10.0,NNE,5.8,-,N/A,,Clear,20,2012-11-19 02:55:00
8:15 PM,62.6,39.2,42,30.09,10.0,NNE,4.6,-,N/A,,Clear,30,2012-11-19 03:15:00
8:35 PM,62.6,41.0,45,30.10,10.0,NNE,4.6,-,N/A,,Clear,30,2012-11-19 03:35:00
8:47 PM,62.6,41.0,45,30.10,20.0,NNE,3.5,-,N/A,,Clear,30,2012-11-19 03:47:00
8:55 PM,62.6,41.0,45,30.10,10.0,ENE,3.5,-,N/A,,Clear,70,2012-11-19 03:55:00
9:15 PM,60.8,41.0,48,30.10,10.0,NE,3.5,-,N/A,,Clear,50,2012-11-19 04:15:00
9:35 PM,60.8,41.0,48,30.10,10.0,NE,3.5,-,N/A,,Clear,50,2012-11-19 04:35:00
9:55 PM,62.6,41.0,45,30.10,10.0,Calm,Calm,-,N/A,,Clear,0,2012-11-19 04:55:00
10:15 PM,60.8,41.0,48,30.11,10.0,Calm,Calm,-,N/A,,Clear,0,2012-11-19 05:15:00
10:35 PM,57.2,41.0,55,30.11,10.0,Calm,Calm,-,N/A,,Clear,0,2012-11-19 05:35:00
10:55 PM,55.4,41.0,58,30.12,10.0,SSE,6.9,-,N/A,,Clear,150,2012-11-19 05:55:00
11:15 PM,55.4,41.0,58,30.13,10.0,SSE,6.9,-,N/A,,Clear,160,2012-11-19 06:15:00
11:35 PM,55.4,41.0,58,30.13,10.0,SSE,4.6,-,N/A,,Clear,160,2012-11-19 06:35:00
11:55 PM,55.4,41.0,58,30.13,10.0,Calm,Calm,-,N/A,,Clear,0,2012-11-19 06:55:00